This is the latest recevied weather packets stored in our database for station/object WB5LJZ-5. If no packets are shown the sender has not sent any weather packets the latest 10 day(s).
| Time | Temp. | Humidity | Pressure | Rain* | Wind** | Luminosity | Snow |
|---|---|---|---|---|---|---|---|
| 1777748011 | 21.11° C | - | - | 0 mm | 5.36 m/s, 69° | - | - |
| 1777747375 | 21.11° C | - | - | 0 mm | 3.58 m/s, 18° | - | - |
| 1777746739 | 21.11° C | - | - | 0 mm | 5.81 m/s, 35° | - | - |
| 1777746104 | 21.11° C | - | - | 0 mm | 6.26 m/s, 65° | - | - |
| 1777745468 | 20.56° C | - | - | 0 mm | 4.02 m/s, 55° | - | - |
| 1777744832 | 20.56° C | - | - | 0 mm | 4.47 m/s, 39° | - | - |
| 1777744196 | 20° C | - | - | 0 mm | 4.02 m/s, 332° | - | - |
| 1777743560 | 20.56° C | - | - | 0 mm | 4.02 m/s, 39° | - | - |
| 1777742925 | 20° C | - | - | 0 mm | 4.47 m/s, 38° | - | - |
| 1777742289 | 20° C | - | - | 0 mm | 3.58 m/s, 68° | - | - |
| 1777741653 | 20° C | - | - | 0 mm | 3.13 m/s, 56° | - | - |
| 1777741017 | 19.44° C | - | - | 0 mm | 4.47 m/s, 31° | - | - |
| 1777740381 | 19.44° C | - | - | 0 mm | 4.92 m/s, 52° | - | - |
| 1777739746 | 19.44° C | - | - | 0 mm | 4.47 m/s, 42° | - | - |
| 1777739110 | 18.33° C | - | - | 0 mm | 4.92 m/s, 23° | - | - |
| 1777738474 | 18.33° C | - | - | 0 mm | 4.02 m/s, 51° | - | - |
| 1777737838 | 18.33° C | - | - | 0 mm | 3.58 m/s, 48° | - | - |
| 1777737202 | 17.78° C | - | - | 0 mm | 4.02 m/s, 42° | - | - |
| 1777736567 | 17.22° C | - | - | 0 mm | 4.47 m/s, 37° | - | - |
| 1777735930 | 17.22° C | - | - | 0 mm | 4.47 m/s, 17° | - | - |
| 1777735294 | 17.22° C | - | - | 0 mm | 4.47 m/s, 86° | - | - |
| 1777734659 | 16.67° C | - | - | 0 mm | 4.92 m/s, 52° | - | - |
| 1777734023 | 16.11° C | - | - | 0 mm | 4.47 m/s, 31° | - | - |
| 1777733387 | 16.67° C | - | - | 0 mm | 4.92 m/s, 48° | - | - |
| 1777732748 | 16.11° C | - | - | 0 mm | 3.58 m/s, 20° | - | - |
* Rain latest hour (hover to see other rain measurements)
** Current wind speed in m/s (hover to see current wind gust speed)